Wenatchee, WA
on Wednesday, February 13, 2013

Wednesday
Previous Day Next Day
Daily Summary
 ActualAverageRecord
Temperature
Mean Temperature °F 31°F  
Max Temperature 39°F 38°F 59°F (1971)
Min Temperature 24°F 23°F 14°F (1995)
Degree Days
Heating Degree Days 33 34  
Month to date heating degree days 441 452  
Since 1 July heating degree days 4384 4709  
Cooling Degree Days 0 0  
Month to date cooling degree days 0 0  
Year to date cooling degree days 0 0  
Moisture
Dew Point 26°F   
Average Humidity 55    
Maximum Humidity 79    
Minimum Humidity 32    
Precipitation
Precipitation 0.00 in 0.05 in 0.40 in (1962)
Month to date precipitation 0.03 0.69  
Year to date precipitation 1.49 2.56  
Snow
Snow 0.00 in 0.20 in in ()
Month to date snowfall 0.1 3.4  
Since 1 July snowfall 43.9 43.8  
Snow Depth 2.00 in   
Wind
Wind Speed 5 mph   
Max Wind Speed 14 mph   
Max Gust Speed 20 mph   
Visibility 10 miles   
Events     

Key: T is trace of precipitation, MM is missing value
Source: NWS Daily Summary
Time(PST)TemperatureDew PointHumidity Pressure Visibility Wind DirectionWind SpeedGust SpeedPrecipitationEvents Conditions
12:55 AM 35.1°F 28.9°F 78% 30.17 in 10.0 miles Calm Calm - N/A   Mostly Cloudy
1:55 AM 35.1°F 28.9°F 78% 30.15 in 10.0 miles NE 4.6 mph - N/A   Clear
2:55 AM 36.0°F 28.9°F 76% 30.14 in 10.0 miles NE 3.5 mph - N/A   Clear
3:55 AM 35.1°F 28.0°F 76% 30.15 in 10.0 miles ENE 5.8 mph - N/A   Clear
4:55 AM 34.0°F 28.0°F 79% 30.17 in 10.0 miles East 5.8 mph - N/A   Clear
5:55 AM 37.0°F 28.9°F 73% 30.19 in 10.0 miles ENE 3.5 mph - N/A   Clear
6:55 AM 37.9°F 28.9°F 70% 30.20 in 10.0 miles NE 5.8 mph - N/A   Clear
7:55 AM 37.9°F 28.0°F 68% 30.23 in 10.0 miles North 3.5 mph - N/A   Clear
8:55 AM 41.0°F 30.0°F 65% 30.25 in 10.0 miles Calm Calm - N/A   Clear
9:55 AM 48.0°F 28.9°F 48% 30.26 in 10.0 miles Calm Calm - N/A   Clear
10:55 AM 48.0°F 28.9°F 48% 30.27 in 10.0 miles WSW 6.9 mph - N/A   Clear
11:55 AM 48.9°F 28.0°F 44% 30.26 in 10.0 miles WNW 9.2 mph - N/A   Clear
12:55 PM 51.1°F 25.0°F 36% 30.25 in 10.0 miles West 9.2 mph - N/A   Clear
1:55 PM 52.0°F 24.1°F 34% 30.25 in 10.0 miles NW 10.4 mph 19.6 mph N/A   Clear
2:55 PM 53.1°F 24.1°F 32% 30.26 in 10.0 miles WNW 12.7 mph - N/A   Clear
3:55 PM 51.1°F 21.9°F 32% 30.27 in 10.0 miles NW 13.8 mph - N/A   Clear
4:55 PM 50.0°F 21.9°F 33% 30.28 in 10.0 miles Variable 5.8 mph 17.3 mph N/A   Partly Cloudy
5:55 PM 46.9°F 23.0°F 39% 30.30 in 10.0 miles WNW 5.8 mph - N/A   Clear
6:55 PM 43.0°F 23.0°F 45% 30.33 in 10.0 miles Variable 4.6 mph - N/A   Clear
7:55 PM 43.0°F 24.1°F 47% 30.33 in 10.0 miles West 8.1 mph - N/A   Clear
8:55 PM 42.1°F 24.1°F 49% 30.34 in 10.0 miles NW 9.2 mph - N/A   Clear
9:55 PM 41.0°F 24.1°F 51% 30.35 in 10.0 miles NW 6.9 mph - N/A   Clear
10:55 PM 39.0°F 24.1°F 55% 30.38 in 10.0 miles NNW 4.6 mph - N/A   Clear
11:55 PM 37.9°F 24.1°F 57% 30.38 in 10.0 miles NNW 8.1 mph - N/A   Clear
Moon Phase
Feb. 13 Feb. 17 Feb. 25 Mar. 04 Mar. 11
Sunrise:07:08 AM (PST) Moon Rise:08:21 AM (PST)2/13
Sunset:05:22 PM (PST) Moon Set:09:51 PM (PST)2/13

Copyright © 2014 The Weather Underground, Inc.